User: anonymous   Login
Location: Mount Graham
(32.7016°N, 109.8912°W)
Time: 07:09:39
(UTC-07:00)
Language:

Cosmos 1340 - Orbit

View from above orbital plane
View from above orbital plane
View from above satellite
View from above satellite

Ground track
Ground track

The orbit data is extracted from the following two-line orbital elements,

1 13067U 82013A   17293.72309886 +.00000877 +00000-0 +39972-4 0  9992
2 13067 081.1879 347.9777 0004506 107.2075 252.9649 15.19625879946609
Epoch (UTC): 20 October 2017 17:21:15
Eccentricity: 0.0004506
inclination: 81.1879°
perigee height: 504 km
apogee height: 510 km
right ascension of ascending node: 347.9777°
argument of perigee: 107.2075°
revolutions per day: 15.19625879
mean anomaly at epoch: 252.9649°
orbit number at epoch: 94660

The dashed part of the orbit path shows where the satellite is in the earth's shadow,  

DLR